Location: Mizzole
(45.4833°N, 11.0500°E)
Time: 04:31:05
(UTC+00:00)

FengYun 1-2 T - Pass Details

Date: 21 October 2019
Orbit: 846 x 882 km, 98.7° (Epoch: 13 November)

Event Time Altitude Azimuth Distance (km) Brightness Sun altitude
Rises 17:00:20 0° 152° (SSE) 3,463 7.2 -7.6°
Reaches altitude 10° 17:02:45 10° 148° (SSE) 2,525 6.4 -8.1°
Maximum altitude 17:08:15 59° 71° (ENE) 1,006 4.3 -9.0°
Drops below altitude 10° 17:13:44 10° 353° (N) 2,520 6.7 -10.0°
Sets 17:16:09 0° 350° (N) 3,456 7.5 -10.4°
